FLOCK 3K-3 (43892 NORAD) Tracking and Keplerian Element Data

This shows tracking and keplerian element data for the satellite.

Feedback or suggestion? Click here.




ElementValue
Catalog43892
NameFLOCK 3K-3
Epoch Orbit458
Epoch Day26.16719665
Epoch Year2019
RAAN295.2424
Inclination97.2998
Eccentricity0.0025535
Argument of Perigee139.8337
Mean Anonmoly220.4794
Mean Motion15.23366259
Decay Rate1.827E-05
L11 43892U 18111S 19026.16719665 .00001827 00000-0 79126-4 0 9994
L22 43892 97.2998 295.2424 0025535 139.8337 220.4794 15.23366259 4581

Live tracking and technical data element details for FLOCK 3K-3 (NORAD 43892). FLOCK 3K-3 can be tracked NOW for your location showing map with azimuth and elevation plus other details from your city location.

Track the satellite on the map from your city or location and see movement details for azimuth, elevation, latitude, longitude, range, height, and movement on the map or in text.







IsCatalogInMostPopularTable: catalog: 43892, numindb: 45
Update: records affected: 1



GetName: 43892 FLOCK 3K-3

Hit Count: updated at: Thu, 23 May 2019 15:27:27 GMT